星链-1486 (STARLINK-1486 )

导读 | 豆包AI

STARLINK-1486是美国太空探索技术公司(SpaceX)星链(Starlink)卫星互联网项目的卫星,于2020年6月13日发射升空,属于星链项目的早期部署卫星,旨在为全球提供高速低延迟互联网服务,尤其覆盖偏远地区等网络基础设施匮乏区域,推动全球卫星互联网组网建设。

基本信息
目录编号:
45757
目录名称:
STARLINK-1486
国际标识:
2020-038AD
轨道中心:
EARTH
卫星名称:
星链-1486
卫星全名:
星链-1486 (STARLINK-1486 )
卫星状态:
已陨落 最后检测时间 2025-01-04
发射日期:
2020-06-13 UTC
国别 :
美国 (US)
星等 :
--
轨道信息
数据来源 国际轨道数据
星历时间: 2025-01-04T17:05:58+0800
轨道信息已过期454天
半长轴: 6534.652km
偏心率: 0.0005572
轨道倾角: 53.041°
近地点辐角 241.450°
升交点赤经 221.169°
平近点角 241.190°
近地点: 152.875km
远地点: 160.159km
周期: 87.618分钟
每日圈数: 16.434976
详细信息
固有亮度:
5
最大亮度:
2.5
卫星平台:
Starlink V1.0
覆盖范围:
全球
运营商:
太空探索技术公司
运营商所在国:
美国
制造商(研发单位):
太空探索技术公司
制造商所在国:
美国
使用方式:
暂无
卫星简介
星链(Starlink)计划是由太空探索技术公司(SpaceX)提出的一个巨型低轨卫星互联网星座项目,计划在2019年至2024年间在太空搭建由约1.2万颗卫星组成的“星链”网络,其中1584颗将部署在地球上空550千米处的近地轨道,并从2020年开始工作。该卫星仍在工作。